Location: Mouss�
(47.9236°N, 1.2701°W)
Time: 03:31:56
(UTC+00:00)

Cosmos 2333 - Pass Details

Date: 03 March 2021
Orbit: 829 x 866 km, 70.9° (Epoch: 16 April)

Event Time Altitude Azimuth Distance (km) Brightness Sun altitude
Rises 20:13:20 0° 211° (SSW) 3,375 7.5 -24.1°
Reaches altitude 10° 20:15:45 10° 213° (SSW) 2,450 6.8 -24.5°
Maximum altitude 20:21:23 76° 299° (WNW) 876 4.3 -25.3°
Drops below altitude 10° 20:27:07 10° 25° (NNE) 2,491 6.6 -26.2°
Sets 20:29:36 0° 28° (NNE) 3,437 7.3 -26.6°
